Location: Waldport
(44.4270°N, 124.0680°W)
Time: 13:11:14
(UTC-08:00)

Cosmos 921 Rocket - Pass Details

Date: 23 June 2018
Orbit: 572 x 632 km, 75.8° (Epoch: 18 November)

Event Time Altitude Azimuth Distance (km) Brightness Sun altitude
Rises 21:38:19 0° 345° (NNW) 2,910 7.6 -5.6°
Reaches altitude 10° 21:40:36 10° 350° (N) 2,007 6.6 -5.9°
Maximum altitude 21:45:01 57° 69° (ENE) 746 3.3 -6.5°
Drops below altitude 10° 21:49:27 10° 148° (SSE) 2,008 5.1 -7.0°
Enters shadow 21:49:55 - 150° (SSE) 2,192 5.3 -7.1°
